FW4702 Weather Reports


Display with metric or nautical units.
time (UTC)temp
F
wind
direction
speed
MPH
gust
MPH
rain 1hr
in
rain 24hr
in
rain mn
in
humidity
%
barometer
mb
20260902232557 85 0 0.0 0.0 0.00 0.00 0.00 84 1017.1
20260902232057 85 0 0.0 0.0 0.00 0.00 0.00 82 1017.1
20260902231607 86 0 0.0 0.0 0.00 0.00 0.00 80 1017.1
20260902231057 86 0 0.0 0.0 0.00 0.00 0.00 77 1017.2
20260902230600 86 0 0.0 0.0 0.00 0.00 0.00 74 1017.1
20260902230120 86 0 0.0 0.0 0.00 0.00 0.00 75 1017.2
20260902225601 87 0 0.0 0.0 0.00 0.00 0.00 75 1017.2
20260902225100 87 0 0.0 0.0 0.00 0.00 0.00 74 1017.2
20260902224616 88 0 0.0 0.0 0.00 0.00 0.00 72 1017.1
20260902224057 88 0 0.0 0.0 0.00 0.00 0.00 72 1017.2
20260902223601 88 0 0.0 1.0 0.00 0.00 0.00 69 1017.2
20260902223113 88 0 0.0 1.0 0.00 0.00 0.00 74 1017.2
20260902222557 88 0 0.0 1.0 0.00 0.00 0.00 72 1017.2
20260902222057 88 0 0.0 1.0 0.00 0.00 0.00 71 1017.2
20260902221610 89 0 0.0 1.0 0.00 0.00 0.00 71 1017.2
20260902221100 89 0 0.0 1.0 0.00 0.00 0.00 70 1017.2
20260902220559 90 0 0.0 1.0 0.00 0.00 0.00 69 1017.2
20260902220108 91 0 0.0 1.0 0.00 0.00 0.00 68 1017.3
20260902215557 91 0 0.0 1.0 0.00 0.00 0.00 66 1017.3
20260902215056 91 123 0.0 1.0 0.00 0.00 0.00 65 1017.2
20260902214620 92 0 0.0 0.0 0.00 0.00 0.00 63 1017.2
20260902214057 92 0 0.0 1.0 0.00 0.00 0.00 58 1017.4
20260902213557 93 0 0.0 3.0 0.00 0.00 0.00 55 1017.4
20260902213109 93 0 0.0 3.0 0.00 0.00 0.00 54 1017.6
20260902212557 92 0 0.0 2.0 0.00 0.00 0.00 57 1017.5
20260902212057 91 0 0.0 2.0 0.00 0.00 0.00 57 1017.5
20260902211605 90 0 0.0 2.0 0.00 0.00 0.00 66 1017.6
20260902211057 92 0 0.0 1.0 0.00 0.00 0.00 61 1017.6
20260902210600 91 0 0.0 1.0 0.00 0.00 0.00 63 1017.7
20260902210100 91 0 0.0 2.0 0.00 0.00 0.00 65 1017.7
20260902205557 91 0 0.0 2.0 0.00 0.00 0.00 60 1017.7
20260902205057 92 0 0.0 2.0 0.00 0.00 0.00 56 1017.6
20260902204610 91 0 0.0 1.0 0.00 0.00 0.00 63 1017.5
20260902204056 91 0 0.0 1.0 0.00 0.00 0.00 62 1017.6
20260902203557 90 0 0.0 1.0 0.00 0.00 0.00 68 1017.6
20260902203104 90 0 0.0 0.0 0.00 0.00 0.00 73 1017.7
20260902202557 90 0 0.0 0.0 0.00 0.00 0.00 67 1017.7
20260902202057 89 0 0.0 1.0 0.00 0.00 0.00 70 1017.8
20260902201632 91 0 0.0 1.0 0.00 0.00 0.00 63 1017.8
20260902201056 91 0 0.0 1.0 0.00 0.00 0.00 58 1017.8
20260902200600 92 0 0.0 2.0 0.00 0.00 0.00 58 1017.9
20260902195557 93 224 0.0 4.0 0.00 0.00 0.00 53 1018.2
20260902195058 94 36 0.0 4.0 0.00 0.00 0.00 54 1018.2
20260902194601 94 0 0.0 4.0 0.00 0.00 0.00 53 1018.2
20260902194059 94 0 1.0 4.0 0.00 0.00 0.00 54 1018.2
20260902193559 93 233 0.0 2.0 0.00 0.00 0.00 56 1018.3
20260902193105 93 0 0.0 3.0 0.00 0.00 0.00 53 1018.4
20260902192556 94 5 0.0 3.0 0.00 0.00 0.00 58 1018.4
20260902192054 93 0 1.0 3.0 0.00 0.00 0.00 56 1018.4
20260902191606 93 104 0.0 3.0 0.00 0.00 0.00 55 1018.5
20260902191057 93 184 0.0 3.0 0.00 0.00 0.00 55 1018.5
20260902190554 93 0 1.0 3.0 0.00 0.00 0.00 55 1018.5
20260902190106 93 0 0.0 3.0 0.00 0.00 0.00 55 1018.6
20260902185557 93 188 1.0 4.0 0.00 0.00 0.00 55 1018.6
20260902185055 93 182 1.0 4.0 0.00 0.00 0.00 54 1018.7
20260902184601 93 220 0.0 3.0 0.00 0.00 0.00 56 1018.8
20260902184057 93 0 0.0 3.0 0.00 0.00 0.00 54 1018.9
20260902183556 92 186 1.0 3.0 0.00 0.00 0.00 56 1018.9
20260902183110 92 0 0.0 3.0 0.00 0.00 0.00 58 1018.9
20260902182556 92 172 0.0 3.0 0.00 0.00 0.00 60 1018.9
20260902182059 92 175 1.0 3.0 0.00 0.00 0.00 58 1018.9
20260902181607 92 311 1.0 3.0 0.00 0.00 0.00 56 1019.0
20260902181056 92 171 0.0 3.0 0.00 0.00 0.00 63 1019.1
20260902180554 92 0 1.0 3.0 0.00 0.00 0.00 60 1019.1
20260902180118 92 0 0.0 3.0 0.00 0.00 0.00 58 1019.3
20260902175555 92 192 1.0 3.0 0.00 0.00 0.00 64 1019.4
20260902175055 91 178 0.0 3.0 0.00 0.00 0.00 62 1019.4
20260902174606 91 194 0.0 2.0 0.00 0.00 0.00 62 1019.4
20260902174057 91 0 0.0 2.0 0.00 0.00 0.00 65 1019.5
20260902173557 90 0 0.0 2.0 0.00 0.00 0.00 61 1019.6
20260902173101 91 182 0.0 4.0 0.00 0.00 0.00 63 1019.7
20260902172555 91 320 0.0 4.0 0.00 0.00 0.00 63 1019.8
20260902172055 91 319 1.0 2.0 0.00 0.00 0.00 62 1019.8
20260902171610 90 236 0.0 3.0 0.00 0.00 0.00 63 1019.9
20260902171054 90 0 0.0 3.0 0.00 0.00 0.00 65 1020.0
20260902170555 90 180 1.0 3.0 0.00 0.00 0.00 62 1020.1
20260902170106 90 286 1.0 3.0 0.00 0.00 0.00 61 1020.1
20260902165557 90 0 0.0 3.0 0.00 0.00 0.00 60 1020.3
20260902165054 90 0 0.0 3.0 0.00 0.00 0.00 61 1020.3
20260902164606 91 0 0.0 3.0 0.00 0.00 0.00 59 1020.3
20260902164055 91 281 0.0 2.0 0.00 0.00 0.00 59 1020.3
20260902163557 90 350 0.0 2.0 0.00 0.00 0.00 59 1020.3
20260902163058 89 0 0.0 2.0 0.00 0.00 0.00 63 1020.6
20260902162553 89 0 0.0 2.0 0.00 0.00 0.00 69 1020.4
20260902162056 89 0 0.0 2.0 0.00 0.00 0.00 67 1020.6
20260902161607 89 165 0.0 2.0 0.00 0.00 0.00 68 1020.6
20260902161054 89 0 0.0 2.0 0.00 0.00 0.00 69 1020.6
20260902160557 88 0 0.0 2.0 0.00 0.00 0.00 68 1020.6
20260902155554 88 0 0.0 2.0 0.00 0.00 0.00 66 1020.6
20260902155057 88 0 0.0 3.0 0.00 0.00 0.00 70 1020.7
20260902154606 87 0 0.0 3.0 0.00 0.00 0.00 70 1020.8
20260902154057 87 199 0.0 2.0 0.00 0.00 0.00 70 1020.6
20260902153557 86 199 0.0 2.0 0.00 0.00 0.00 75 1020.7
20260902153112 86 199 0.0 2.0 0.00 0.00 0.00 74 1020.8
20260902152556 87 0 0.0 2.0 0.00 0.00 0.00 70 1020.7
20260902152056 87 0 1.0 2.0 0.00 0.00 0.00 71 1020.7
20260902151607 86 0 0.0 2.0 0.00 0.00 0.00 72 1020.7
20260902151057 86 0 0.0 2.0 0.00 0.00 0.00 71 1020.8
20260902150556 85 197 0.0 2.0 0.00 0.00 0.00 73 1020.8
20260902150103 85 197 1.0 2.0 0.00 0.00 0.00 70 1020.6
20260902145554 85 180 0.0 2.0 0.00 0.00 0.00 69 1020.5
20260902145054 85 0 0.0 2.0 0.00 0.00 0.00 74 1020.6
20260902144601 85 0 0.0 2.0 0.00 0.00 0.00 72 1020.5
20260902144057 85 0 0.0 2.0 0.00 0.00 0.00 72 1020.5
20260902143555 84 0 0.0 2.0 0.00 0.00 0.00 77 1020.5
20260902143106 83 0 0.0 2.0 0.00 0.00 0.00 80 1020.5
20260902142555 83 182 0.0 2.0 0.00 0.00 0.00 81 1020.4
20260902142057 83 24 1.0 2.0 0.00 0.00 0.00 81 1020.4
20260902141603 83 0 0.0 1.0 0.00 0.00 0.00 81 1020.5
20260902141053 82 0 0.0 1.0 0.00 0.00 0.00 81 1020.5
20260902140556 82 0 0.0 0.0 0.00 0.00 0.00 84 1020.6
20260902140109 81 0 0.0 0.0 0.00 0.00 0.00 84 1020.4
20260902135557 81 0 0.0 0.0 0.00 0.00 0.00 84 1020.6
20260902135054 80 0 0.0 0.0 0.00 0.00 0.00 85 1020.5
20260902134559 80 0 0.0 0.0 0.00 0.00 0.00 86 1020.6
20260902134053 80 0 0.0 0.0 0.00 0.00 0.00 86 1020.6
20260902133554 79 0 0.0 0.0 0.00 0.00 0.00 86 1020.6
20260902133107 79 0 0.0 0.0 0.00 0.00 0.00 86 1020.6
20260902132557 78 0 0.0 0.0 0.00 0.00 0.00 87 1020.5
20260902132053 79 0 0.0 0.0 0.00 0.00 0.00 88 1020.5
20260902131612 78 0 0.0 0.0 0.00 0.00 0.00 88 1020.4
20260902131056 77 0 0.0 0.0 0.00 0.00 0.00 91 1020.4
20260902130556 76 0 0.0 0.0 0.00 0.00 0.00 92 1020.4
20260902130107 76 0 0.0 0.0 0.00 0.00 0.00 94 1020.3
20260902125555 75 0 0.0 0.0 0.00 0.00 0.00 94 1020.3
20260902125055 75 0 0.0 0.0 0.00 0.00 0.00 94 1020.3
20260902124556 75 0 0.0 0.0 0.00 0.00 0.00 95 1020.3
20260902124053 74 0 0.0 0.0 0.00 0.00 0.00 96 1020.3
20260902123556 73 0 0.0 0.0 0.00 0.00 0.00 96 1020.3
20260902123106 73 0 0.0 0.0 0.00 0.00 0.00 96 1020.3
20260902122557 72 0 0.0 0.0 0.00 0.00 0.00 96 1020.3
20260902122056 72 0 0.0 0.0 0.00 0.00 0.00 96 1020.2
20260902121611 72 0 0.0 0.0 0.00 0.00 0.00 96 1020.2
20260902121057 72 0 0.0 0.0 0.00 0.00 0.00 96 1020.1
20260902120600 71 0 0.0 0.0 0.00 0.00 0.00 97 1020.0
20260902115557 71 0 0.0 0.0 0.00 0.00 0.00 96 1019.8
20260902115054 71 0 0.0 0.0 0.00 0.00 0.00 96 1019.7
20260902114609 71 0 0.0 0.0 0.00 0.00 0.00 96 1019.8
20260902114055 71 0 0.0 0.0 0.00 0.00 0.00 96 1019.8
20260902113556 71 0 0.0 0.0 0.00 0.00 0.00 96 1019.7
20260902113108 71 0 0.0 0.0 0.00 0.00 0.00 96 1019.7
20260902112557 71 0 0.0 0.0 0.00 0.00 0.00 96 1019.8
20260902112054 71 0 0.0 0.0 0.00 0.00 0.00 96 1019.8
20260902111602 71 0 0.0 0.0 0.00 0.00 0.00 96 1019.7
20260902111057 71 0 0.0 0.0 0.00 0.00 0.00 96 1019.6
20260902110556 71 0 0.0 0.0 0.00 0.00 0.00 96 1019.6
20260902105554 71 0 0.0 0.0 0.00 0.00 0.00 96 1019.6
20260902105059 71 0 0.0 0.0 0.00 0.00 0.00 96 1019.6
20260902104615 71 0 0.0 0.0 0.00 0.00 0.00 96 1019.5
20260902104054 71 0 0.0 0.0 0.00 0.00 0.00 96 1019.4
20260902103556 71 0 0.0 0.0 0.00 0.00 0.00 96 1019.4
20260902103107 71 0 0.0 0.0 0.00 0.00 0.00 96 1019.4
20260902102554 71 0 0.0 0.0 0.00 0.00 0.00 96 1019.3
20260902102057 71 0 0.0 0.0 0.00 0.00 0.00 96 1019.3
20260902101603 71 0 0.0 0.0 0.00 0.00 0.00 96 1019.3
20260902101057 71 0 0.0 0.0 0.00 0.00 0.00 96 1019.3
20260902100559 71 0 0.0 0.0 0.00 0.00 0.00 96 1019.3
20260902095557 71 0 0.0 0.0 0.00 0.00 0.00 96 1019.2
20260902095057 71 0 0.0 0.0 0.00 0.00 0.00 96 1019.1
20260902094604 71 0 0.0 0.0 0.00 0.00 0.00 96 1019.0
20260902094057 71 0 0.0 0.0 0.00 0.00 0.00 96 1018.9
20260902093557 72 0 0.0 0.0 0.00 0.00 0.00 96 1018.9
20260902093100 72 0 0.0 0.0 0.00 0.00 0.00 95 1018.9
20260902092553 72 0 0.0 0.0 0.00 0.00 0.00 96 1018.8
20260902092058 72 0 0.0 0.0 0.00 0.00 0.00 96 1018.7
20260902091611 72 0 0.0 0.0 0.00 0.00 0.00 96 1018.7
20260902091054 72 0 0.0 0.0 0.00 0.00 0.00 96 1018.6
20260902090601 72 0 0.0 0.0 0.00 0.00 0.00 96 1018.5
20260902090106 72 0 0.0 0.0 0.00 0.00 0.00 95 1018.5
20260902085556 72 0 0.0 0.0 0.00 0.00 0.00 96 1018.5
20260902085053 72 0 0.0 0.0 0.00 0.00 0.00 96 1018.7
20260902084609 72 0 0.0 0.0 0.00 0.00 0.00 96 1018.6
20260902084054 72 0 0.0 0.0 0.00 0.00 0.00 95 1018.5
20260902083553 72 0 0.0 0.0 0.00 0.00 0.00 95 1018.4
20260902083116 72 0 0.0 0.0 0.00 0.00 0.00 95 1018.5
20260902082557 72 0 0.0 0.0 0.00 0.00 0.00 95 1018.4
20260902082057 72 0 0.0 0.0 0.00 0.00 0.00 95 1018.4
20260902081605 72 0 0.0 0.0 0.00 0.00 0.00 95 1018.4
20260902081057 72 0 0.0 0.0 0.00 0.00 0.00 95 1018.4
20260902080601 72 0 0.0 0.0 0.00 0.00 0.00 95 1018.3
20260902080105 72 0 0.0 0.0 0.00 0.00 0.00 95 1018.3
20260902075559 72 0 0.0 0.0 0.00 0.00 0.00 95 1018.2
20260902075056 72 0 0.0 0.0 0.00 0.00 0.00 95 1018.2
20260902074626 72 0 0.0 0.0 0.00 0.00 0.00 94 1018.1
20260902074057 72 0 0.0 0.0 0.00 0.00 0.00 94 1018.1
20260902073557 72 0 0.0 0.0 0.00 0.00 0.00 94 1018.0
20260902073101 72 0 0.0 0.0 0.00 0.00 0.00 94 1018.0
20260902072558 72 0 0.0 0.0 0.00 0.00 0.00 93 1018.0
20260902072058 72 0 0.0 0.0 0.00 0.00 0.00 94 1018.2
20260902071604 72 0 0.0 0.0 0.00 0.00 0.00 93 1018.2
20260902071101 72 0 0.0 0.0 0.00 0.00 0.00 93 1018.2
20260902070556 72 0 0.0 0.0 0.00 0.00 0.00 93 1018.3
20260902070109 72 0 0.0 0.0 0.00 0.00 0.00 93 1018.4
20260902065556 72 0 0.0 0.0 0.00 0.00 0.00 93 1018.3
20260902065054 72 0 0.0 0.0 0.00 0.00 0.00 93 1018.3
20260902064603 72 0 0.0 0.0 0.00 0.00 0.00 93 1018.4
20260902064057 73 0 0.0 0.0 0.00 0.00 0.00 93 1018.4
20260902063557 72 0 0.0 0.0 0.00 0.00 0.00 93 1018.4
20260902063100 72 0 0.0 0.0 0.00 0.00 0.00 93 1018.6
20260902062557 72 0 0.0 0.0 0.00 0.00 0.00 93 1018.6
20260902062056 73 0 0.0 0.0 0.00 0.00 0.00 93 1018.7
20260902061603 73 0 0.0 0.0 0.00 0.00 0.00 92 1018.6
20260902061054 72 0 0.0 0.0 0.00 0.00 0.00 93 1018.6
20260902060553 72 0 0.0 0.0 0.00 0.00 0.00 93 1018.6
20260902060108 72 0 0.0 0.0 0.00 0.00 0.00 93 1018.6
20260902055556 73 0 0.0 0.0 0.00 0.00 0.00 92 1018.7
20260902055054 73 0 0.0 0.0 0.00 0.00 0.00 92 1018.7
20260902054610 73 0 0.0 0.0 0.00 0.00 0.00 92 1018.7
20260902054059 73 0 0.0 0.0 0.00 0.00 0.00 92 1018.7
20260902053557 73 0 0.0 0.0 0.00 0.00 0.00 93 1018.8
20260902053114 73 0 0.0 0.0 0.00 0.00 0.00 92 1018.8
20260902052557 73 0 0.0 0.0 0.00 0.00 0.00 92 1018.8
20260902052056 73 0 0.0 0.0 0.00 0.00 0.00 92 1018.8
20260902051624 73 0 0.0 0.0 0.00 0.00 0.00 91 1018.8
20260902051055 73 0 0.0 0.0 0.00 0.00 0.00 91 1018.7
20260902050555 73 0 0.0 0.0 0.00 0.00 0.00 91 1018.7
20260902050110 74 0 0.0 0.0 0.00 0.00 0.00 91 1018.8
20260902045553 74 0 0.0 0.0 0.00 0.00 0.00 90 1018.8
20260902045119 74 0 0.0 0.0 0.00 0.00 0.00 91 1018.8
20260902044602 73 0 0.0 0.0 0.00 0.00 0.00 92 1018.8
20260902044053 74 0 0.0 0.0 0.00 0.00 0.00 92 1018.8
20260902043557 74 0 0.0 0.0 0.00 0.00 0.00 92 1018.9
20260902043120 73 0 0.0 0.0 0.00 0.00 0.00 92 1018.8
20260902042557 74 0 0.0 0.0 0.00 0.00 0.00 92 1018.9
20260902042053 74 0 0.0 0.0 0.00 0.00 0.00 92 1018.8
20260902041605 74 0 0.0 0.0 0.00 0.00 0.00 92 1018.9
20260902041053 74 0 0.0 0.0 0.00 0.00 0.00 92 1018.9
20260902040558 74 0 0.0 0.0 0.00 0.00 0.00 91 1018.9
20260902040112 75 0 0.0 0.0 0.00 0.00 0.00 91 1018.9
20260902035557 75 0 0.0 0.0 0.00 0.00 0.00 90 1019.0
20260902035059 74 0 0.0 0.0 0.00 0.00 0.00 91 1019.0
20260902034601 74 0 0.0 0.0 0.00 0.00 0.00 92 1018.9
20260902034057 74 0 0.0 0.0 0.00 0.00 0.00 92 1019.0
20260902033557 75 0 0.0 0.0 0.00 0.00 0.00 91 1019.0
20260902033059 75 0 0.0 0.0 0.00 0.00 0.00 90 1019.0
20260902032557 75 0 0.0 0.0 0.00 0.00 0.00 90 1019.0
20260902032057 75 0 0.0 0.0 0.00 0.00 0.00 91 1019.0
20260902031606 75 0 0.0 0.0 0.00 0.00 0.00 90 1019.0
20260902031054 75 0 0.0 0.0 0.00 0.00 0.00 91 1019.0
20260902030600 75 0 0.0 0.0 0.00 0.00 0.00 91 1018.9
20260902030103 75 0 0.0 0.0 0.00 0.00 0.00 91 1018.9
20260902025553 76 0 0.0 0.0 0.00 0.00 0.00 91 1019.0
20260902025055 76 0 0.0 0.0 0.00 0.00 0.00 92 1019.0
20260902024602 75 0 0.0 0.0 0.00 0.00 0.00 91 1019.1
20260902024053 76 0 0.0 0.0 0.00 0.00 0.00 92 1018.9
20260902023557 76 0 0.0 0.0 0.00 0.00 0.00 91 1019.0
20260902023109 76 0 0.0 0.0 0.00 0.00 0.00 91 1018.9
20260902022559 76 0 0.0 0.0 0.00 0.00 0.00 91 1018.9
20260902022053 76 0 0.0 0.0 0.00 0.00 0.00 91 1018.8
20260902021606 76 0 0.0 0.0 0.00 0.00 0.00 90 1018.8
20260902021054 76 0 0.0 0.0 0.00 0.00 0.00 91 1018.7
20260902020557 76 0 0.0 0.0 0.00 0.00 0.00 90 1018.7
20260902020100 77 0 0.0 0.0 0.00 0.00 0.00 91 1018.5
20260902015553 77 0 0.0 0.0 0.00 0.00 0.00 91 1018.5
20260902015053 77 0 0.0 0.0 0.00 0.00 0.00 91 1018.5
20260902014603 77 0 0.0 0.0 0.00 0.00 0.00 90 1018.5
20260902014059 77 0 0.0 0.0 0.00 0.00 0.00 90 1018.4
20260902013557 77 0 0.0 0.0 0.00 0.00 0.00 90 1018.4
20260902013108 78 0 0.0 0.0 0.00 0.00 0.00 90 1018.4
20260902012556 78 0 0.0 0.0 0.00 0.00 0.00 89 1018.4
20260902012056 78 0 0.0 0.0 0.00 0.00 0.00 90 1018.2
20260902011635 78 0 0.0 0.0 0.00 0.00 0.00 90 1018.2
20260902011054 78 0 0.0 0.0 0.00 0.00 0.00 89 1018.2
20260902010554 78 0 0.0 0.0 0.00 0.00 0.00 89 1018.2
20260902010105 78 0 0.0 0.0 0.00 0.00 0.00 88 1018.2
20260902005553 78 0 0.0 0.0 0.00 0.00 0.00 89 1018.1
20260902005054 79 0 0.0 0.0 0.00 0.00 0.00 88 1018.1
20260902004602 79 0 0.0 0.0 0.00 0.00 0.00 88 1018.1
20260902004059 79 0 0.0 0.0 0.00 0.00 0.00 88 1018.2
20260902003558 79 0 0.0 0.0 0.00 0.00 0.00 87 1018.2
20260902003112 79 0 0.0 0.0 0.00 0.00 0.00 87 1018.1
20260902002558 80 0 0.0 0.0 0.00 0.00 0.00 87 1018.1
20260902002054 80 0 0.0 0.0 0.00 0.00 0.00 86 1018.2
20260902001606 80 0 0.0 0.0 0.00 0.00 0.00 87 1018.3
20260902001053 81 0 0.0 0.0 0.00 0.00 0.00 86 1018.2
20260902000554 81 0 0.0 0.0 0.00 0.00 0.00 85 1018.2
20260902000105 81 0 0.0 0.0 0.00 0.00 0.00 84 1018.3
20260901235554 82 0 0.0 0.0 0.00 0.00 0.00 86 1018.3
20260901235057 82 0 0.0 0.0 0.00 0.00 0.00 86 1018.3
20260901234616 82 0 0.0 0.0 0.00 0.00 0.00 85 1018.2
20260901234057 83 0 0.0 0.0 0.00 0.00 0.00 85 1018.3
20260901233557 83 0 0.0 0.0 0.00 0.00 0.00 82 1018.2
20260901233108 84 0 0.0 0.0 0.00 0.00 0.00 79 1018.3